Location: Newark
(0.5300°S, 127.4800°E)
Time: 02:34:29
(UTC+00:00)

A-11 Canister half - Pass Details

Date: 24 September 2019
Orbit: 1514 x 1686 km, 47.2° (Epoch: 18 October)

Event Time Altitude Azimuth Distance (km) Brightness Sun altitude
Rises 20:58:17 0° 217° (SW) 4,896 11.3 -5.9°
Reaches altitude 10° 21:01:28 10° 216° (SW) 3,888 10.8 -5.1°
Maximum altitude 21:11:25 80° 129° (SE) 1,627 9.3 -2.7°
Drops below altitude 10° 21:20:56 10° 43° (NE) 3,742 11.7 -0.3°
Sets 21:23:56 0° 43° (NE) 4,704 12.2 0.5°
